Location: Schommer Observatory
(40.5200°N, 74.4500°W)
Time: 08:08:34
(UTC-04:00)

ISS - Pass Details

Date: 22 May 2018
Orbit: 402 x 407 km, 51.6° (Epoch: 25 May)

Event Time Altitude Azimuth Distance (km) Brightness Sun altitude
Rises 00:03:17 0° 291° (WNW) 2,317 0.5 -28.0°
Reaches altitude 10° 00:06:15 10° 320° (NW) 1,458 -0.3 -28.1°
Maximum altitude 00:07:54 13° 351° (N) 1,282 -0.4 -28.2°
Drops below altitude 10° 00:09:33 10° 21° (NNE) 1,458 -0.3 -28.2°
Sets 00:12:30 0° 51° (NE) 2,318 0.4 -28.3°
